Rogers City, MI

5:46 AM EST on February 09, 2016 (GMT -0500)
Presque Isle County

Weather History for KPZQ - March, 2013

Change the Weather History Date:

Tuesday, March 26, 2013

  Actual Average (KAPN) Record (KAPN)
Temperature  
Mean Temperature 37 °F 33 °F  
Max Temperature 41 °F 42 °F 76 °F (1945)
Min Temperature 33 °F 23 °F -9 °F (1923)
Degree Days  
Heating Degree Days 28 32  
Month to date heating degree days 968  
Since 1 July heating degree days 6700  
Cooling Degree Days 0 0  
Month to date cooling degree days 0  
Year to date cooling degree days 0  
Moisture  
Dew Point 26 °F    
Average Humidity 66    
Maximum Humidity 83    
Minimum Humidity 46    
Precipitation  
Precipitation 0.00 in 0.07 in 0.89 in (1970)
Month to date precipitation 1.54  
Year to date precipitation 4.52  
Snow  
Snow 0.00 in 0.30 in 10.00 in (1970)
Month to date snowfall 10.7  
Since 1 July snowfall 76.8  
Snow Depth -    
Sea Level Pressure  
Sea Level Pressure 30.02 in    
Wind  
Wind Speed 9 mph (NW)    
Max Wind Speed 17 mph    
Max Gust Speed 25 mph    
Visibility 10 miles    
Events Snow    
T = Trace of Precipitation, MM = Missing Value Source: NWS Daily Summary

Daily Weather History Graph

Daily Weather History Graph

Search for Another Location

Airport or City:

Trip Planner

Search our weather history database for the weather conditions in past years. The results will help you decide how hot, cold, wet, or windy it might be!

Date:

Astronomy

Mar. 26, 2013 Rise Set
Actual Time 7:26 AM EDT 7:55 PM EDT
Civil Twilight 6:56 AM EDT 8:25 PM EDT
Nautical Twilight 6:21 AM EDT 9:00 PM EDT
Astronomical Twilight 5:45 AM EDT 9:37 PM EDT
Moon 7:32 PM EDT (3/26) 6:43 AM EDT (3/26)
Length of Visible Light 13h 28m
Length of Day
12h 29m
Waxing Gibbous, 99% of the Moon is Illuminated
Mar 26
Waxing Gibbous
Mar 27
Full
Apr 3
Last Quarter
Apr 10
New
Apr 18
First Quarter

Hourly Weather History & Observations

Time (EDT) Temp. Windchill Dew Point Humidity Pressure Visibility Wind Dir Wind Speed Gust Speed Precip Events Conditions
12:14 AM 35.6 °F 28.6 °F 28.4 °F 75% 29.96 in 10.0 mi NW 9.2 mph - N/A   Overcast
12:35 AM 35.6 °F 29.9 °F 28.8 °F 76% 29.96 in 10.0 mi NW 6.9 mph - N/A   Overcast
12:55 AM 35.2 °F 28.8 °F 28.4 °F 76% 29.96 in 10.0 mi NW 8.1 mph - N/A   Overcast
1:15 AM 35.2 °F 30.3 °F 28.8 °F 77% 29.96 in 10.0 mi NW 5.8 mph - N/A   Overcast
1:35 AM 35.2 °F 29.5 °F 28.6 °F 77% 29.97 in 10.0 mi NW 6.9 mph - N/A   Overcast
1:55 AM 35.1 °F 29.3 °F 28.6 °F 77% 29.97 in 10.0 mi NW 6.9 mph - N/A   Overcast
2:15 AM 35.1 °F 29.3 °F 28.4 °F 77% 29.97 in 10.0 mi WNW 6.9 mph - N/A   Overcast
2:35 AM 35.2 °F 28.8 °F 28.2 °F 76% 29.97 in 10.0 mi NW 8.1 mph - N/A   Overcast
2:55 AM 35.1 °F 29.3 °F 28.0 °F 76% 29.97 in 10.0 mi NW 6.9 mph - N/A   Overcast
3:15 AM 34.3 °F 30.2 °F 28.4 °F 79% 29.97 in 10.0 mi WNW 4.6 mph - N/A   Overcast
3:35 AM 34.3 °F 30.2 °F 28.4 °F 79% 29.97 in 10.0 mi WNW 4.6 mph - N/A   Overcast
3:55 AM 34.0 °F 28.8 °F 28.4 °F 80% 29.97 in 10.0 mi WNW 5.8 mph - N/A   Overcast
4:15 AM 34.2 °F 29.0 °F 28.4 °F 79% 29.97 in 10.0 mi WNW 5.8 mph - N/A   Overcast
4:35 AM 34.0 °F 27.2 °F 28.4 °F 80% 29.97 in 10.0 mi NW 8.1 mph - N/A   Overcast
4:55 AM 34.3 °F 28.4 °F 28.8 °F 80% 29.97 in 10.0 mi NW 6.9 mph - N/A   Overcast
5:15 AM 34.0 °F 28.0 °F 29.3 °F 83% 29.98 in 10.0 mi NNW 6.9 mph - N/A   Overcast
5:34 AM 34.2 °F 29.0 °F 29.3 °F 82% 29.98 in 10.0 mi NW 5.8 mph - N/A Snow Light Snow
5:55 AM 34.3 °F 28.4 °F 29.1 °F 81% 29.98 in 10.0 mi WNW 6.9 mph - N/A   Overcast
6:15 AM 34.3 °F 28.4 °F 28.6 °F 79% 29.98 in 10.0 mi WNW 6.9 mph - N/A   Overcast
6:35 AM 33.8 °F 29.6 °F 28.6 °F 81% 29.99 in 10.0 mi WNW 4.6 mph - N/A   Overcast
6:55 AM 33.8 °F 27.7 °F 28.8 °F 82% 29.99 in 10.0 mi WNW 6.9 mph - N/A   Overcast
7:15 AM 33.8 °F 27.7 °F 28.9 °F 82% 30.00 in 10.0 mi WNW 6.9 mph - N/A   Overcast
7:35 AM 33.8 °F 28.6 °F 28.8 °F 82% 30.00 in 10.0 mi WNW 5.8 mph - N/A   Overcast
7:54 AM 33.8 °F 28.6 °F 28.9 °F 82% 30.01 in 10.0 mi NW 5.8 mph - N/A   Overcast
8:15 AM 34.2 °F 29.0 °F 28.9 °F 81% 30.02 in 10.0 mi NW 5.8 mph - N/A   Overcast
8:35 AM 34.5 °F 27.3 °F 28.9 °F 80% 30.02 in 10.0 mi WNW 9.2 mph - N/A   Overcast
8:55 AM 34.7 °F 28.1 °F 28.4 °F 78% 30.02 in 10.0 mi NW 8.1 mph - N/A   Overcast
9:15 AM 34.9 °F 29.9 °F 28.6 °F 78% 30.03 in 10.0 mi NW 5.8 mph - N/A   Overcast
9:35 AM 35.6 °F 28.0 °F 28.4 °F 75% 30.03 in 10.0 mi NW 10.4 mph - N/A   Overcast
9:55 AM 37.2 °F 30.0 °F 29.1 °F 73% 30.04 in 10.0 mi NW 10.4 mph - N/A   Overcast
10:15 AM 36.3 °F 30.1 °F 28.2 °F 72% 30.04 in 10.0 mi NW 8.1 mph - N/A   Overcast
10:35 AM 36.5 °F 29.2 °F 26.8 °F 68% 30.04 in 10.0 mi NNW 10.4 mph 17.3 mph N/A   Overcast
10:55 AM 36.5 °F 29.2 °F 26.4 °F 67% 30.05 in 10.0 mi NW 10.4 mph - N/A   Mostly Cloudy
11:15 AM 37.6 °F 32.3 °F 25.7 °F 62% 30.05 in 10.0 mi NW 6.9 mph - N/A   Mostly Cloudy
11:34 AM 38.3 °F 31.9 °F 25.3 °F 60% 30.05 in 10.0 mi NW 9.2 mph 17.3 mph N/A   Scattered Clouds
11:55 AM 38.5 °F 31.6 °F 23.5 °F 55% 30.05 in 10.0 mi NNW 10.4 mph 18.4 mph N/A   Clear
12:15 PM 38.5 °F 30.3 °F 23.4 °F 55% 30.05 in 10.0 mi NW 13.8 mph 19.6 mph N/A   Scattered Clouds
12:35 PM 38.8 °F 30.8 °F 23.0 °F 53% 30.04 in 10.0 mi NW 13.8 mph 17.3 mph N/A   Scattered Clouds
12:55 PM 39.4 °F 33.2 °F 23.4 °F 53% 30.04 in 10.0 mi NNW 9.2 mph 19.6 mph N/A   Clear
1:15 PM 39.2 °F 31.2 °F 22.8 °F 52% 30.04 in 10.0 mi NW 13.8 mph 21.9 mph N/A   Clear
1:35 PM 40.1 °F 32.7 °F 22.3 °F 49% 30.04 in 10.0 mi NNW 12.7 mph 19.6 mph N/A   Clear
1:55 PM 40.5 °F 33.2 °F 22.6 °F 49% 30.03 in 10.0 mi NW 12.7 mph 19.6 mph N/A   Scattered Clouds
2:15 PM 40.8 °F 33.3 °F 23.2 °F 50% 30.03 in 10.0 mi NW 13.8 mph 19.6 mph N/A   Mostly Cloudy
2:35 PM 41.2 °F 34.1 °F 22.5 °F 47% 30.03 in 10.0 mi NW 12.7 mph 18.4 mph N/A   Overcast
2:55 PM 40.3 °F 31.6 °F 21.7 °F 48% 30.03 in 10.0 mi NW 17.3 mph 23.0 mph N/A   Overcast
3:14 PM 41.4 °F 34.7 °F 22.6 °F 47% 30.02 in 10.0 mi NW 11.5 mph 24.2 mph N/A   Overcast
3:35 PM 41.9 °F 33.7 °F 22.6 °F 46% 30.02 in 10.0 mi NNW 17.3 mph 21.9 mph N/A   Mostly Cloudy
3:55 PM 41.5 °F 34.6 °F 22.6 °F 47% 30.02 in 10.0 mi NW 12.7 mph 20.7 mph N/A   Scattered Clouds
4:15 PM 41.0 °F 32.5 °F 22.1 °F 47% 30.02 in 10.0 mi NW 17.3 mph 23.0 mph N/A   Mostly Cloudy
4:35 PM 41.4 °F 33.0 °F 21.9 °F 46% 30.02 in 10.0 mi NW 17.3 mph 24.2 mph N/A   Overcast
4:55 PM 40.5 °F 33.6 °F 21.7 °F 47% 30.02 in 10.0 mi NW 11.5 mph 25.3 mph N/A   Overcast
5:15 PM 39.2 °F 31.6 °F 22.5 °F 51% 30.02 in 10.0 mi NW 12.7 mph 20.7 mph N/A   Overcast
5:35 PM 38.8 °F 30.8 °F 23.5 °F 54% 30.02 in 10.0 mi NW 13.8 mph 18.4 mph N/A   Overcast
5:55 PM 39.4 °F 31.8 °F 23.4 °F 53% 30.02 in 10.0 mi NW 12.7 mph 24.2 mph N/A   Overcast
6:15 PM 38.8 °F 32.1 °F 23.5 °F 54% 30.03 in 10.0 mi NW 10.4 mph 21.9 mph N/A   Overcast
6:35 PM 37.9 °F 30.0 °F 23.4 °F 56% 30.03 in 10.0 mi NW 12.7 mph 19.6 mph N/A   Mostly Cloudy
6:55 PM 37.8 °F 29.0 °F 23.0 °F 55% 30.04 in 10.0 mi NW 15.0 mph 19.6 mph N/A   Mostly Cloudy
7:15 PM 37.4 °F 30.8 °F 23.2 °F 57% 30.05 in 10.0 mi NW 9.2 mph - N/A   Mostly Cloudy
7:35 PM 36.7 °F 32.0 °F 23.2 °F 58% 30.05 in 10.0 mi WNW 5.8 mph - N/A   Mostly Cloudy
7:55 PM 36.3 °F 30.8 °F 23.5 °F 60% 30.05 in 10.0 mi WNW 6.9 mph - N/A   Scattered Clouds
8:15 PM 35.8 °F 28.8 °F 23.9 °F 62% 30.05 in 10.0 mi WNW 9.2 mph - N/A   Scattered Clouds
8:35 PM 35.6 °F 27.5 °F 24.6 °F 64% 30.06 in 10.0 mi NW 11.5 mph - N/A   Mostly Cloudy
8:55 PM 35.8 °F 28.8 °F 24.6 °F 64% 30.06 in 10.0 mi WNW 9.2 mph 17.3 mph N/A   Overcast
9:15 PM 36.0 °F 28.5 °F 24.3 °F 63% 30.07 in 10.0 mi NW 10.4 mph - N/A   Overcast
9:35 PM 36.0 °F 28.5 °F 23.9 °F 62% 30.07 in 10.0 mi WNW 10.4 mph 17.3 mph N/A   Overcast
9:55 PM 35.8 °F 28.3 °F 23.9 °F 62% 30.07 in 10.0 mi WNW 10.4 mph 17.3 mph N/A   Overcast
10:15 PM 35.6 °F 27.5 °F 23.9 °F 62% 30.07 in 10.0 mi WNW 11.5 mph - N/A   Overcast
10:35 PM 35.4 °F 27.8 °F 24.3 °F 64% 30.07 in 10.0 mi WNW 10.4 mph - N/A   Overcast
10:55 PM 35.1 °F 27.4 °F 24.4 °F 65% 30.07 in 10.0 mi WNW 10.4 mph 17.3 mph N/A   Overcast
11:15 PM 34.7 °F 26.4 °F 24.6 °F 67% 30.07 in 10.0 mi West 11.5 mph 17.3 mph N/A   Overcast
11:35 PM 34.3 °F 25.5 °F 24.8 °F 68% 30.07 in 10.0 mi WNW 12.7 mph 18.4 mph N/A   Overcast
11:55 PM 34.2 °F 27.5 °F 25.3 °F 70% 30.07 in 10.0 mi WNW 8.1 mph 17.3 mph N/A   Overcast